Temp
64 64 64 64 64 64 64 64 64 64 64 64 65 64 64 64 65 75 79 75 77 72 71 84 84 84 84 79 79 78 71 68 69 70 73 77 75 78 80 78 78 75 74 70 73
63 63 63 64 64 64 64 64 64 64 64 64 64 64 64 64 75 78 72 72 72 71 81 81 79 81 80 76 77 75 70 71 76 77 74 76 76 77 76 76 74 72 72 72 73
63 63 63 63 63 63 64 63 63 63 64 64 64 64 63 67 75 77 71 72 72 74 82 82 82 80 75 76 75 73 69 72 73 75 77 74 73 76 74 72 75 75 70 69 71
62 62 63 63 63 63 63 63 63 63 63 63 63 63 63 76 66 77 70 72 71 81 82 80 79 75 73 70 73 69 71 73 71 71 71 71 75 72 74 70 70 70 69 69 68
62 61 62 62 62 63 63 63 63 63 63 63 63 63 73 74 76 77 68 71 79 80 79 78 76 74 70 72 71 69 70 71 72 69 70 70 70 71 71 68 68 66 66 66 65
61 61 61 61 62 62 63 63 63 63 63 63 64 62 74 68 77 80 77 75 80 80 78 79 77 77 73 71 69 71 69 71 71 71 70 66 71 68 72 69 66 65 64 64 62
61 60 60 61 61 62 62 62 63 62 63 63 64 72 72 73 79 80 77 77 78 79 76 77 79 74 74 68 70 69 65 71 70 70 68 69 64 63 70 67 64 63 63 61 61
60 60 60 60 61 61 62 62 62 62 63 64 64 73 70 74 81 75 78 75 78 79 77 77 78 74 72 71 69 65 65 61 69 67 66 66 62 69 67 66 65 64 63 60 59
60 59 60 60 60 60 61 61 61 62 63 64 69 70 68 70 70 77 79 74 75 76 75 76 75 71 68 65 63 64 59 62 64 68 65 63 64 65 67 66 66 65 63 61 60
59 59 59 60 60 60 60 61 63 63 66 70 71 64 69 67 69 73 76 76 72 71 70 70 70 65 65 64 54 60 59 62 61 65 63 63 62 64 64 65 66 65 63 61 60
59 59 59 60 60 60 62 66 64 62 63 67 68 69 66 67 71 69 73 72 72 69 61 65 61 57 63 66 67 64 62 61 66 65 60 63 64 69 65 63 64 63 62 60 58
59 59 60 60 60 60 65 64 67 64 60 67 67 68 68 70 62 65 71 66 63 59 65 57 55 66 69 66 64 61 58 59 65 62 59 62 61 67 69 63 65 64 62 60 56
59 59 59 60 60 59 62 65 69 69 60 66 67 65 65 66 65 63 67 67 61 59 58 57 62 64 60 59 57 59 57 59 59 57 58 58 55 59 67 65 62 62 63 61 58
59 59 59 59 56 63 58 67 68 68 54 60 57 64 64 67 60 69 69 66 59 58 59 59 66 58 57 57 59 54 63 60 58 54 49 58 46 60 65 57 55 55 58 58 57
59 59 59 59 64 59 65 68 68 65 37 64 58 65 65 63 61 55 66 63 59 58 58 58 54 54 54 57 61 57 59 57 56 52 51 53 45 56 61 55 54 53 54 56 56
58 58 58 57 59 67 67 66 65 49 38 50 54 52 53 58 55 56 56 62 63 59 57 59 59 60 60 55 59 58 54 52 52 51 41 50 49 52 57 54 58 53 53 54 53
58 58 57 61 54 61 62 59 44 41 61 51 49 52 53 50 50 53 50 49 50 46 49 54 54 58 57 52 52 54 51 42 39 37 37 50 48 53 63 57 60 52 52 54 54
57 58 57 60 64 60 55 47 34 49 55 54 52 52 49 49 48 48 48 48 54 56 55 49 46 54 56 56 54 48 51 43 32 36 41 40 40 52 58 57 54 56 54 54 52
56 55 56 58 62 58 49 37 41 50 59 55 51 47 46 49 49 46 47 50 56 57 49 50 50 56 56 59 59 49 44 55 40 32 35 46 50 57 48 47 49 53 52 51 50
52 52 54 60 59 54 45 39 46 58 62 62 50 53 48 47 46 47 48 56 55 57 60 56 47 50 50 53 54 52 56 40 42 31 32 45 47 50 42 46 46 48 49 49 50
51 46 56 59 55 48 39 41 49 60 63 58 54 54 55 52 48 47 53 57 58 55 55 56 52 43 47 46 47 45 44 47 49 44 37 38 45 58 56 52 47 48 49 49 49
49 42 57 57 44 46 41 46 51 55 60 58 58 57 56 56 49 49 50 56 60 56 47 54 50 43 46 53 54 55 50 49 41 36 40 38 45 53 57 58 53 49 50 51 51
45 45 54 54 40 41 45 45 51 51 54 54 53 57 60 55 47 53 55 62 60 54 51 51 41 34 38 43 45 43 48 50 49 40 36 36 44 51 50 52 54 52 51 51 51
45 38 45 47 47 45 41 41 42 52 51 54 55 54 51 51 56 53 53 51 55 55 50 52 41 38 40 47 50 40 44 46 45 37 40 42 47 45 48 49 50 52 52 52 51
45 39 45 38 40 43 45 44 41 41 49 50 47 50 47 41 45 49 53 45 46 49 50 48 35 41 44 49 51 45 44 44 42 45 41 47 48 55 53 52 54 53 52 50 49
40 40 42 43 45 42 42 41 41 43 45 42 42 47 49 43 45 43 48 50 46 45 45 44 35 40 36 44 44 41 46 46 45 45 47 50 51 63 62 58 56 53 51 49 49
44 42 40 42 41 39 37 39 42 46 46 48 46 45 43 48 53 49 46 49 48 44 39 36 34 33 32 39 38 30 36 43 47 49 50 44 51 47 50 50 49 49 51 49 50
MSLP
1018.82 1018.72 1018.64 1018.61 1018.44 1018.27 1018.18 1018.06 1017.82 1017.62 1017.37 1017.26 1017.03 1016.79 1016.49 1016.10 1015.56 1015.41 1014.36 1014.81 1014.57 1014.67 1014.67 1013.89 1013.41 1013.11 1012.85 1012.81 1012.93 1012.62 1011.32 1010.33 1010.31 1010.48 1010.81 1012.11 1012.22 1012.84 1013.27 1013.17 1013.82 1014.98 1015.69 1017.10 1017.46
1018.89 1018.83 1018.66 1018.59 1018.47 1018.39 1018.22 1018.12 1017.83 1017.62 1017.45 1017.30 1017.06 1016.80 1016.54 1016.23 1015.32 1014.54 1014.80 1014.70 1014.65 1014.71 1014.36 1013.68 1013.15 1013.07 1012.54 1012.77 1012.81 1012.36 1011.55 1010.72 1011.18 1011.13 1011.50 1012.30 1012.51 1012.84 1013.28 1013.55 1014.50 1015.67 1016.80 1017.51 1017.66
1018.98 1018.93 1018.71 1018.57 1018.50 1018.36 1018.28 1018.07 1017.92 1017.76 1017.57 1017.36 1017.09 1016.85 1016.53 1016.10 1015.04 1014.18 1014.67 1014.70 1014.77 1014.69 1014.20 1013.86 1013.44 1013.11 1012.70 1012.89 1012.84 1012.61 1011.91 1012.10 1012.29 1012.50 1012.40 1012.79 1013.19 1013.54 1013.58 1013.97 1014.52 1015.29 1016.94 1017.77 1018.01
1018.97 1018.90 1018.84 1018.65 1018.46 1018.33 1018.17 1018.01 1017.92 1017.84 1017.65 1017.33 1017.02 1016.64 1016.30 1015.71 1014.86 1014.60 1014.76 1014.74 1014.83 1014.50 1014.10 1013.77 1013.41 1012.97 1012.81 1012.78 1013.16 1012.86 1012.99 1012.88 1013.18 1013.51 1013.63 1013.53 1013.60 1013.77 1014.18 1015.18 1016.15 1016.95 1017.68 1018.14 1018.46
1018.81 1018.81 1018.79 1018.73 1018.59 1018.35 1018.15 1017.98 1017.90 1017.83 1017.64 1017.30 1016.95 1016.63 1016.00 1015.18 1014.25 1014.68 1014.90 1014.91 1014.65 1014.51 1014.06 1013.71 1013.35 1013.14 1012.89 1012.98 1013.34 1013.18 1013.26 1013.57 1013.74 1014.07 1014.18 1014.42 1014.15 1014.22 1014.61 1016.12 1017.07 1017.81 1018.28 1018.67 1019.08
1018.69 1018.74 1018.61 1018.65 1018.59 1018.50 1018.31 1018.09 1017.96 1017.80 1017.64 1017.33 1016.97 1016.70 1016.02 1015.11 1014.57 1014.56 1014.83 1014.94 1014.53 1014.43 1014.17 1014.02 1013.54 1013.57 1013.31 1013.33 1013.55 1013.55 1013.70 1013.59 1013.82 1014.03 1014.33 1014.64 1014.28 1014.96 1014.74 1016.27 1017.19 1017.88 1018.50 1019.10 1019.64
1018.61 1018.62 1018.60 1018.48 1018.48 1018.44 1018.40 1018.24 1018.10 1017.82 1017.60 1017.26 1017.04 1016.45 1015.56 1014.59 1014.50 1014.68 1014.84 1014.80 1014.80 1014.55 1014.33 1014.45 1014.23 1014.07 1013.85 1013.86 1014.18 1014.00 1013.72 1013.22 1013.43 1013.86 1014.23 1014.72 1014.38 1014.41 1015.01 1016.35 1017.07 1017.83 1018.61 1019.34 1019.83
1018.29 1018.46 1018.53 1018.44 1018.43 1018.39 1018.41 1018.24 1018.11 1017.91 1017.57 1017.28 1017.02 1016.32 1014.98 1014.85 1014.59 1014.93 1014.85 1014.89 1014.95 1014.91 1014.82 1014.95 1014.76 1014.54 1014.32 1014.58 1014.21 1013.80 1013.61 1012.78 1012.68 1013.84 1014.41 1014.76 1013.20 1013.75 1015.40 1016.07 1016.67 1017.55 1018.34 1019.25 1019.99
1017.90 1018.16 1018.36 1018.45 1018.35 1018.35 1018.32 1018.23 1017.97 1017.86 1017.64 1017.32 1016.79 1016.17 1014.83 1015.12 1014.88 1014.54 1014.62 1014.61 1015.00 1015.12 1015.26 1015.19 1014.90 1014.46 1014.79 1014.13 1013.59 1013.25 1012.33 1012.20 1012.62 1013.55 1014.03 1014.40 1013.16 1014.26 1015.32 1015.78 1016.25 1017.19 1018.12 1019.12 1019.96
1017.57 1017.83 1018.03 1018.20 1018.26 1018.28 1018.19 1018.11 1017.71 1017.69 1017.41 1017.05 1016.66 1016.36 1014.79 1014.47 1014.69 1014.72 1014.90 1014.79 1014.88 1015.13 1015.23 1015.13 1014.76 1014.32 1014.00 1013.46 1012.26 1011.79 1012.06 1012.09 1012.47 1013.20 1013.88 1013.72 1013.42 1014.12 1015.07 1015.46 1015.79 1016.77 1017.88 1018.80 1019.64
1017.08 1017.51 1017.77 1017.90 1018.08 1018.20 1018.23 1017.75 1017.61 1017.22 1016.60 1014.85 1014.31 1013.78 1014.00 1014.79 1014.96 1014.83 1014.90 1014.93 1014.86 1014.92 1014.61 1014.86 1014.39 1013.16 1012.77 1012.84 1012.40 1012.38 1012.24 1012.02 1012.02 1013.16 1013.81 1013.14 1012.84 1012.73 1014.15 1015.08 1015.38 1016.30 1017.37 1018.45 1019.58
1016.36 1017.11 1017.45 1017.63 1017.81 1018.11 1017.83 1016.75 1015.97 1016.62 1015.21 1014.19 1014.06 1013.84 1014.02 1014.08 1014.48 1014.78 1015.10 1014.76 1014.66 1014.19 1014.36 1014.98 1013.54 1012.72 1012.73 1012.86 1012.72 1012.84 1012.58 1012.27 1012.37 1013.35 1013.98 1013.08 1012.45 1012.40 1012.63 1013.73 1014.63 1015.60 1016.79 1018.10 1019.68
1015.74 1016.52 1016.96 1017.38 1017.66 1018.02 1017.23 1016.39 1016.39 1016.19 1015.21 1013.08 1012.92 1012.82 1013.20 1013.88 1013.32 1013.70 1014.43 1014.10 1014.11 1014.02 1014.02 1013.30 1012.78 1012.86 1013.24 1013.43 1013.38 1012.91 1012.75 1012.54 1012.80 1013.83 1014.14 1013.43 1012.17 1011.75 1011.64 1013.03 1014.51 1015.66 1016.68 1017.89 1019.16
1014.89 1015.73 1016.32 1017.10 1017.89 1016.88 1016.58 1016.20 1016.50 1016.42 1014.85 1012.05 1012.25 1011.38 1012.39 1012.95 1013.08 1013.09 1013.57 1013.75 1014.10 1013.44 1013.92 1013.44 1012.83 1013.40 1013.60 1013.38 1013.60 1012.93 1012.94 1013.44 1013.59 1014.00 1013.23 1013.44 1011.08 1010.48 1010.73 1012.54 1014.27 1015.75 1016.77 1017.76 1018.82
1014.00 1014.80 1015.38 1016.07 1014.94 1015.25 1015.16 1015.67 1016.19 1016.38 1014.47 1009.99 1011.39 1012.47 1011.75 1011.73 1012.47 1013.89 1013.93 1013.81 1013.05 1013.30 1013.71 1012.35 1013.16 1013.55 1013.48 1013.31 1013.86 1013.69 1013.96 1014.16 1014.26 1014.20 1013.94 1013.41 1013.08 1009.79 1010.46 1011.79 1013.06 1014.92 1016.44 1017.49 1018.62
1013.04 1013.74 1014.47 1015.27 1015.19 1014.35 1014.99 1015.38 1015.65 1015.92 1011.41 1010.59 1011.55 1012.11 1012.36 1012.26 1013.08 1014.03 1014.36 1014.02 1013.56 1013.30 1013.38 1012.84 1013.62 1013.54 1013.41 1014.20 1014.29 1014.70 1014.98 1015.27 1015.30 1015.05 1013.32 1013.00 1012.68 1008.74 1009.64 1010.26 1011.74 1014.17 1015.96 1017.09 1018.34
1012.26 1012.72 1013.41 1013.62 1013.54 1014.33 1014.79 1015.10 1014.96 1012.39 1008.36 1009.23 1010.38 1011.45 1011.66 1012.22 1013.14 1013.31 1013.51 1013.40 1012.60 1013.02 1012.37 1012.82 1012.86 1013.48 1013.96 1014.39 1015.13 1014.93 1015.09 1015.13 1014.92 1014.90 1012.76 1012.24 1011.61 1008.88 1009.30 1010.56 1011.32 1013.25 1015.31 1016.86 1018.35
1011.91 1012.03 1012.05 1012.23 1012.87 1013.73 1014.36 1013.96 1011.92 1006.94 1007.66 1008.70 1009.44 1010.45 1011.01 1011.97 1012.45 1012.88 1012.92 1012.46 1012.10 1011.21 1010.79 1011.15 1011.33 1012.06 1013.00 1012.45 1013.00 1014.17 1014.21 1014.16 1014.03 1013.96 1013.10 1013.24 1010.86 1009.43 1009.94 1011.06 1012.18 1013.33 1015.13 1016.70 1018.11
1011.88 1011.75 1011.23 1011.19 1012.03 1012.58 1013.23 1011.31 1008.01 1003.79 1006.08 1007.03 1009.20 1009.63 1010.35 1011.10 1011.69 1012.22 1011.56 1010.61 1009.84 1010.19 1010.56 1010.30 1010.78 1011.57 1012.47 1012.74 1012.91 1014.01 1014.13 1013.90 1014.50 1015.13 1014.20 1011.54 1010.24 1009.91 1011.04 1012.05 1012.88 1013.50 1014.87 1016.13 1017.46
1011.38 1011.02 1009.94 1010.38 1010.87 1011.44 1011.03 1009.27 1006.68 1005.72 1005.70 1005.62 1006.02 1007.24 1007.88 1009.38 1010.53 1010.89 1010.22 1008.58 1009.01 1009.28 1009.55 1009.82 1010.88 1012.14 1013.24 1013.68 1013.43 1013.52 1013.59 1014.59 1014.69 1013.99 1012.44 1009.70 1009.06 1008.64 1010.26 1011.12 1012.54 1013.42 1014.45 1015.99 1017.35
1010.80 1010.29 1008.18 1009.02 1010.18 1009.46 1007.91 1007.34 1006.04 1006.12 1005.50 1005.22 1005.08 1005.67 1005.99 1007.20 1008.37 1008.57 1007.66 1007.57 1008.21 1008.82 1009.98 1010.37 1011.05 1012.61 1013.43 1012.85 1012.19 1013.68 1013.46 1013.24 1012.94 1012.45 1011.30 1009.64 1007.61 1006.99 1007.77 1009.31 1010.88 1012.55 1013.72 1014.89 1016.10
1009.96 1009.22 1007.93 1008.33 1008.40 1007.34 1007.00 1004.60 1006.95 1006.01 1005.89 1005.27 1005.16 1005.06 1005.03 1006.15 1006.96 1007.04 1006.41 1006.36 1007.12 1008.31 1009.66 1009.91 1010.60 1011.21 1011.36 1011.63 1012.00 1011.53 1011.81 1012.34 1011.94 1011.91 1011.48 1010.28 1006.82 1007.36 1007.77 1008.46 1010.19 1011.87 1013.15 1014.34 1015.51
1008.99 1008.51 1008.09 1007.36 1006.40 1006.44 1006.67 1006.50 1006.65 1006.14 1005.38 1005.18 1004.93 1005.04 1005.21 1005.45 1006.23 1005.73 1005.67 1005.95 1007.03 1007.80 1008.29 1009.80 1010.88 1011.86 1011.47 1012.30 1012.58 1011.82 1011.12 1011.07 1011.35 1011.50 1009.81 1010.08 1006.65 1007.90 1008.49 1009.07 1009.99 1011.05 1012.24 1013.50 1014.83
1009.14 1008.38 1007.71 1007.50 1005.97 1006.28 1006.34 1005.87 1005.96 1005.78 1005.44 1005.20 1004.80 1005.34 1005.35 1005.31 1005.47 1004.91 1005.42 1006.58 1007.23 1007.70 1008.40 1008.81 1010.04 1009.61 1008.44 1008.18 1008.67 1010.04 1009.94 1010.34 1010.82 1010.34 1007.87 1006.96 1006.89 1008.08 1008.41 1008.88 1009.75 1010.51 1011.75 1012.95 1014.05
1008.63 1007.78 1007.06 1006.25 1006.40 1005.86 1005.48 1005.16 1005.11 1005.34 1005.47 1005.49 1005.20 1004.77 1005.30 1006.00 1006.10 1005.18 1006.28 1007.75 1008.45 1008.67 1009.08 1009.46 1010.21 1010.19 1008.66 1008.30 1008.24 1008.63 1008.68 1009.18 1009.08 1006.62 1008.13 1003.73 1006.08 1006.54 1007.33 1008.22 1008.75 1009.82 1011.32 1012.56 1013.62
1008.72 1007.64 1007.06 1006.55 1005.85 1005.69 1005.28 1004.40 1004.41 1004.80 1004.67 1004.81 1005.10 1005.01 1005.56 1005.29 1005.21 1005.82 1006.90 1006.99 1007.81 1009.36 1009.87 1010.22 1010.17 1010.36 1008.96 1008.46 1008.75 1008.48 1008.05 1007.53 1007.00 1006.86 1006.69 1005.41 1004.64 1005.59 1006.09 1007.70 1008.77 1009.63 1010.70 1011.81 1012.74
1008.29 1007.98 1007.41 1005.49 1005.48 1005.29 1004.95 1004.75 1003.97 1004.53 1004.26 1004.53 1005.12 1005.77 1005.48 1004.89 1006.26 1006.78 1006.83 1006.97 1007.45 1008.29 1009.90 1011.00 1010.91 1010.75 1008.59 1008.85 1008.98 1008.48 1003.65 1006.97 1005.66 1005.64 1005.50 1005.56 1004.01 1006.67 1007.23 1008.22 1008.97 1009.69 1010.68 1011.59 1012.16
Wind_Speed
0 1 2 3 4 5 6 6 7 9 10 12 12 11 11 12 11 5 2 4 3 2 5 1 3 1 2 2 2 3 5 6 5 7 5 6 8 3 1 3 3 4 5 5 6
2 1 1 2 3 4 5 6 8 9 10 11 12 11 11 10 5 5 4 2 2 3 4 5 3 3 3 2 1 4 4 1 4 2 4 7 6 6 5 6 6 5 7 6 6
4 4 3 2 2 3 5 6 7 9 10 11 11 10 10 10 5 3 3 1 1 3 3 2 1 3 3 2 1 1 5 2 3 3 1 5 5 2 5 6 4 1 6 5 5
6 5 5 4 4 4 4 6 7 9 11 12 13 12 11 5 4 3 3 1 1 4 3 4 4 3 3 4 1 6 2 2 2 3 2 5 0 5 5 6 7 7 6 4 5
6 6 6 6 6 5 5 6 7 9 10 12 12 12 6 6 2 4 2 3 4 3 5 3 5 2 6 2 3 6 3 3 3 4 4 1 7 7 6 6 6 6 5 4 4
8 8 7 6 7 7 7 7 8 9 11 12 11 12 5 9 3 3 4 4 3 5 4 4 3 2 3 2 5 2 4 5 6 8 6 6 10 3 7 8 6 5 4 4 4
9 9 8 7 7 7 7 8 9 9 10 8 7 5 6 8 2 4 3 2 2 2 3 0 1 4 1 2 1 2 6 9 11 9 5 7 11 12 10 11 9 6 4 2 3
10 9 9 8 7 6 7 8 8 10 7 5 7 5 7 2 1 4 5 4 4 3 1 2 1 2 4 2 3 5 4 8 8 8 4 9 12 9 11 12 10 6 4 1 3
11 11 10 9 8 7 7 7 8 7 6 7 4 4 6 3 4 5 4 4 6 4 4 4 2 2 5 7 7 8 10 9 5 10 5 11 3 9 12 11 9 7 6 4 4
13 12 11 9 8 7 6 5 5 6 5 4 3 5 7 3 4 5 3 8 3 8 6 5 6 8 9 11 10 10 11 9 10 8 9 11 14 9 11 12 11 9 8 7 6
14 13 12 10 8 6 6 4 5 6 6 10 4 3 4 5 3 5 5 8 6 8 9 9 10 14 18 17 17 8 10 12 8 4 5 14 15 12 14 12 12 11 10 9 7
16 14 12 10 8 7 7 6 5 4 9 16 12 9 2 5 5 8 7 11 9 13 12 5 17 18 13 11 14 13 15 16 13 4 4 12 17 15 14 18 16 14 12 11 9
19 17 14 11 8 5 10 8 4 4 8 12 11 10 7 10 8 16 17 9 10 15 16 17 3 7 10 8 12 16 16 14 14 2 10 13 19 22 24 15 9 10 10 10 12
20 18 16 12 5 8 9 11 4 3 8 16 10 10 10 10 10 7 18 6 6 15 14 15 12 5 10 16 15 16 14 14 12 7 10 6 11 11 10 16 15 14 14 14 13
22 21 20 22 4 15 4 11 8 2 10 4 11 3 7 17 12 5 5 6 14 11 9 6 10 12 13 11 11 7 2 7 11 14 15 17 11 12 7 15 19 19 17 16 15
25 25 23 14 5 11 8 12 8 7 20 6 6 8 9 15 3 6 7 0 4 9 10 14 3 7 11 3 7 10 5 2 3 8 14 17 18 12 13 14 13 18 19 19 19
24 25 23 12 11 9 11 9 8 17 7 12 8 10 15 9 8 9 15 14 13 11 17 14 16 6 5 6 3 13 8 5 6 7 9 1 14 16 2 5 9 21 22 20 18
11 25 24 13 10 13 7 12 12 32 29 8 5 10 14 12 8 9 13 13 22 18 9 16 10 23 17 22 10 18 17 7 7 7 5 2 11 8 2 7 4 15 19 18 19
7 4 10 15 15 12 11 17 22 31 23 19 9 8 14 9 7 11 14 12 15 23 15 12 11 6 7 10 16 8 14 13 4 2 5 8 11 7 7 7 7 16 19 20 19
3 4 8 16 18 15 17 19 22 19 19 23 32 19 17 15 14 16 18 13 15 23 13 5 7 5 5 4 4 9 9 7 7 7 9 9 14 11 10 15 15 18 19 18 18
5 4 4 18 13 14 18 20 28 15 20 21 24 22 25 17 19 15 11 6 19 19 20 8 8 7 7 12 18 8 10 9 6 10 4 5 8 9 13 17 21 18 18 21 21
3 5 4 16 12 10 18 39 17 26 17 20 13 23 20 20 17 19 19 13 19 17 19 14 4 11 14 4 9 17 14 20 7 7 7 5 11 3 3 11 16 17 18 19 19
5 5 4 12 13 14 15 27 25 19 29 20 23 20 20 20 12 21 17 12 17 18 21 15 6 3 4 1 2 10 16 16 19 1 15 8 8 3 6 7 12 16 17 17 18
4 4 4 4 2 18 14 17 30 21 16 26 23 13 12 18 21 11 18 6 14 15 5 9 6 12 19 6 9 11 16 22 18 14 15 28 15 6 10 12 13 14 16 17 19
4 5 4 4 14 20 19 13 19 22 23 14 16 23 21 13 19 26 14 4 2 6 6 11 10 17 23 22 11 8 15 24 29 34 19 30 25 14 17 16 17 16 16 17 18
4 3 4 5 7 9 14 18 22 19 15 19 23 23 23 22 22 12 21 15 9 9 8 3 6 13 23 20 20 22 19 23 31 30 31 31 30 4 15 14 11 14 15 16 17
2 2 5 8 9 8 6 5 19 20 13 16 25 17 20 32 20 11 4 9 5 14 14 11 7 7 19 10 13 6 40 24 26 30 24 30 30 4 6 11 10 9 11 14 16
Wind_Direction
94 43 14 9 12 11 7 7 5 358 353 346 340 334 333 333 305 228 274 24 346 326 299 224 226 257 244 98 360 302 245 224 212 221 173 149 187 162 82 193 76 34 37 31 6
221 247 308 348 353 352 359 355 356 352 346 339 335 330 331 330 279 259 63 5 351 171 228 221 206 221 169 133 164 266 263 225 357 188 195 165 226 169 218 183 149 125 89 59 54
255 268 277 294 316 333 337 347 345 341 337 332 327 324 324 307 279 82 38 2 163 253 268 262 215 242 207 258 164 140 284 103 147 112 218 164 206 211 238 225 32 232 112 70 60
251 262 278 285 297 313 325 336 337 332 330 332 327 327 324 261 310 80 35 102 186 283 204 184 215 230 261 237 181 240 182 211 128 149 191 202 15 225 245 67 84 75 92 81 57
243 253 271 286 294 302 311 320 325 324 325 329 326 329 305 250 304 105 122 133 181 189 219 216 238 269 257 244 212 246 167 200 166 177 225 327 244 263 217 126 115 111 107 82 59
241 247 253 271 286 296 301 308 315 321 323 325 323 318 269 265 99 110 120 142 205 209 193 226 299 284 286 257 246 39 228 215 205 217 227 233 239 191 199 155 150 145 114 87 57
240 243 251 257 271 285 292 301 309 319 318 321 329 306 257 276 8 132 150 127 164 253 208 355 286 229 154 219 168 262 264 225 224 221 241 216 244 230 142 165 158 154 148 119 51
226 240 248 254 263 271 282 295 308 317 318 317 317 279 271 72 165 183 175 122 119 105 64 99 215 134 285 114 201 246 238 249 119 179 166 203 267 146 160 172 174 172 165 132 48
219 227 238 248 252 261 277 292 297 302 306 297 265 265 258 133 191 167 208 172 129 114 87 132 201 219 177 223 234 212 263 210 189 200 151 205 246 152 179 196 193 199 190 185 160
221 222 223 235 247 254 266 273 299 271 231 252 270 249 182 191 135 156 147 165 146 144 134 182 206 217 222 216 233 259 227 250 256 157 223 213 246 160 193 215 217 201 196 195 183
214 217 217 220 233 240 259 227 225 204 214 217 212 267 141 102 163 178 162 160 145 198 206 202 216 217 223 225 252 291 284 267 270 97 260 243 250 221 196 214 217 208 205 196 178
203 209 211 210 206 219 247 238 358 7 292 228 243 246 185 189 151 173 181 185 194 207 206 183 229 236 241 269 235 239 253 256 264 144 254 270 264 260 224 211 218 216 206 189 165
199 201 198 197 182 196 226 220 348 315 261 247 207 223 194 177 211 178 182 201 209 214 202 226 220 240 196 210 218 234 240 252 260 135 239 273 265 253 243 204 213 233 205 182 175
201 196 185 160 176 206 225 231 241 316 270 245 204 223 163 186 228 152 198 180 199 220 214 243 237 165 204 227 219 243 226 255 263 251 261 164 282 279 241 206 210 204 198 182 168
204 196 177 172 197 191 162 176 175 240 272 9 131 51 163 186 118 164 169 187 207 186 179 203 185 201 213 221 205 257 58 229 247 258 272 254 264 260 243 214 206 202 196 184 171
206 197 182 189 252 192 154 152 158 198 237 164 130 165 159 207 135 112 172 300 324 225 240 261 18 205 221 104 205 129 115 86 254 265 255 238 235 253 213 230 199 186 191 181 173
210 196 184 181 196 148 142 160 179 218 146 190 169 176 194 175 171 178 180 185 183 188 222 214 219 176 178 151 151 201 176 248 234 212 257 337 219 251 218 168 199 181 184 179 173
255 205 199 198 179 152 156 178 208 231 218 95 136 168 187 158 197 183 171 205 219 224 262 212 222 196 198 214 193 197 198 202 247 234 266 20 236 243 263 109 133 176 178 172 175
244 242 219 197 177 157 184 202 210 216 208 199 141 192 201 201 190 178 203 214 207 205 205 204 235 190 191 221 211 165 221 238 312 155 267 221 244 256 159 180 170 167 171 178 179
225 229 219 192 179 176 197 210 233 230 233 210 215 197 199 195 191 195 190 218 215 200 212 218 243 171 145 175 249 211 159 174 217 228 238 240 242 241 208 196 180 179 181 179 180
207 237 198 174 178 191 204 216 223 227 214 219 219 224 228 198 199 197 205 187 203 185 198 202 242 129 153 202 184 176 204 219 227 223 258 277 241 185 203 188 184 184 184 183 185
206 225 181 164 200 207 204 213 221 219 234 234 245 223 219 216 201 208 216 214 197 153 181 198 219 234 212 122 260 226 213 205 211 183 245 290 253 155 131 175 173 183 187 188 188
226 207 205 198 216 211 211 222 230 213 215 218 225 227 226 214 222 219 213 217 177 175 171 165 189 220 245 182 174 224 217 229 228 91 225 213 244 137 142 156 178 179 183 184 182
254 218 205 245 299 226 215 217 213 221 229 220 225 228 221 231 220 240 219 155 193 199 152 144 154 202 228 212 152 203 206 207 213 225 232 237 249 180 207 190 184 186 181 182 185
238 209 244 206 226 247 218 199 209 212 218 214 225 222 210 223 231 233 226 129 195 201 174 164 220 222 247 255 244 206 204 206 209 225 215 249 239 218 201 199 195 183 177 181 186
272 233 157 264 223 246 239 213 210 211 192 210 227 220 224 218 217 223 226 205 198 179 180 145 241 224 255 241 245 259 248 220 219 228 232 247 253 243 192 194 183 181 174 184 192
167 266 305 196 211 205 218 292 225 209 215 224 220 221 219 229 232 259 285 236 224 183 181 172 195 186 251 207 242 273 236 227 232 223 222 234 246 140 152 179 189 169 181 198 198